Вернуться в каталог

STARLINK-11225

АктивенСвязьVLEO
NORAD 60912·PAYLOAD·🇺🇸 United States

Запущен Aug 31, 2024 с Cape Canaveral Space Force Station

Loading…

Ближайшие Пролёты (ближайшие 24 часа)

TLE

СвежийSource: CelesTrak SupGP

Эпоха: Sep 14, 2026, 20:37 UTC

1 60912C 24154K   26257.85951389  .00006589  00000+0  54275-4 0  2575
2 60912  53.1572 278.6894 0001157  86.5822   1.9768 15.69705268    13

Отслеживайте STARLINK-11225 в реальном времени с AllMySat

Download on the App Store